JBU259 KDEN-KTEX

Flight info

Callsign JBU259
Flight time 0h 58m
Altitude 32000
Route BAYLR6 TEHRU DCT HERRM/N0457F310 DCT ETL DCT
Aircraft A21N/M-SDE2E3FGHIRWXY/LB1

Departure

Time 2026-04-24 21:32
Airport Denver International Airport (KDEN)

Arrival

Time 2026-04-24 22:30
Airport Telluride Regional Airport (KTEX)
Time Latitude Longitude Altitude Speed Heading
2026-04-24 21:01 39.86266 -104.67788 5387 ft 0 kts 360°
2026-04-24 21:20 39.86239 -104.67787 5384 ft 3 kts 360°
2026-04-24 21:20 39.86221 -104.67787 5385 ft 3 kts 360°
2026-04-24 21:20 39.86204 -104.67787 5385 ft 3 kts 360°
2026-04-24 21:21 39.86186 -104.67787 5383 ft 3 kts 360°
2026-04-24 21:21 39.86169 -104.67787 5383 ft 2 kts 359°
2026-04-24 21:21 39.86152 -104.67782 5383 ft 2 kts 334°
2026-04-24 21:21 39.86140 -104.67768 5384 ft 3 kts 290°
2026-04-24 21:22 39.86137 -104.67753 5382 ft 0 kts 265°
2026-04-24 21:23 39.86137 -104.67754 5386 ft 1 kts 266°
2026-04-24 21:24 39.86136 -104.67777 5383 ft 4 kts 270°
2026-04-24 21:24 39.86138 -104.67825 5386 ft 7 kts 271°
2026-04-24 21:24 39.86137 -104.67900 5386 ft 10 kts 269°
2026-04-24 21:24 39.86136 -104.68005 5386 ft 13 kts 271°
2026-04-24 21:25 39.86136 -104.68139 5386 ft 16 kts 269°
2026-04-24 21:25 39.86136 -104.68297 5373 ft 17 kts 273°
2026-04-24 21:25 39.86104 -104.68390 5367 ft 12 kts 188°
2026-04-24 21:25 39.86015 -104.68394 5365 ft 14 kts 180°
2026-04-24 21:26 39.85919 -104.68395 5367 ft 13 kts 181°
2026-04-24 21:26 39.85828 -104.68394 5368 ft 13 kts 179°
2026-04-24 21:26 39.85739 -104.68394 5370 ft 13 kts 180°
2026-04-24 21:26 39.85652 -104.68395 5383 ft 12 kts 181°
2026-04-24 21:27 39.85566 -104.68398 5373 ft 13 kts 181°
2026-04-24 21:27 39.85475 -104.68401 5373 ft 14 kts 182°
2026-04-24 21:27 39.85366 -104.68404 5373 ft 18 kts 181°
2026-04-24 21:27 39.85230 -104.68407 5375 ft 20 kts 182°
2026-04-24 21:28 39.85073 -104.68401 5374 ft 27 kts 179°
2026-04-24 21:28 39.84863 -104.68411 5367 ft 34 kts 183°
2026-04-24 21:28 39.84619 -104.68412 5364 ft 36 kts 180°
2026-04-24 21:28 39.84368 -104.68415 5359 ft 36 kts 181°
2026-04-24 21:29 39.84208 -104.68413 5358 ft 12 kts 180°
2026-04-24 21:29 39.84173 -104.68413 5361 ft 0 kts 180°
2026-04-24 21:30 39.84127 -104.68415 5362 ft 13 kts 185°
2026-04-24 21:30 39.84065 -104.68509 5365 ft 18 kts 268°
2026-04-24 21:30 39.84068 -104.68832 5362 ft 70 kts 270°
2026-04-24 21:31 39.84071 -104.69779 5362 ft 136 kts 270°
2026-04-24 21:31 39.84078 -104.71242 5410 ft 181 kts 270°
2026-04-24 21:31 39.84089 -104.72977 5887 ft 202 kts 270°
2026-04-24 21:31 39.84109 -104.74959 6012 ft 240 kts 271°
2026-04-24 21:32 39.84122 -104.77231 6000 ft 263 kts 270°
2026-04-24 21:32 39.84123 -104.79664 6334 ft 274 kts 270°
2026-04-24 21:32 39.83994 -104.82146 7028 ft 278 kts 258°
2026-04-24 21:32 39.83203 -104.84437 7760 ft 283 kts 234°
2026-04-24 21:33 39.81764 -104.86201 8542 ft 286 kts 220°
2026-04-24 21:33 39.80723 -104.87254 9084 ft 287 kts 220°
2026-04-24 21:33 39.78589 -104.89389 9820 ft 291 kts 222°
2026-04-24 21:33 39.77367 -104.91375 9964 ft 286 kts 249°
2026-04-24 21:34 39.76758 -104.93921 10114 ft 307 kts 255°
2026-04-24 21:34 39.76155 -104.96683 10228 ft 329 kts 255°
2026-04-24 21:34 39.75512 -104.99635 10343 ft 349 kts 255°
2026-04-24 21:34 39.74803 -105.02745 10512 ft 368 kts 251°
2026-04-24 21:35 39.73804 -105.05851 10930 ft 377 kts 248°
2026-04-24 21:35 39.72773 -105.09001 11505 ft 380 kts 248°
2026-04-24 21:35 39.71735 -105.12174 12099 ft 383 kts 248°
2026-04-24 21:35 39.70704 -105.15324 12657 ft 386 kts 248°
2026-04-24 21:36 39.69651 -105.18541 13276 ft 388 kts 248°
2026-04-24 21:36 39.68584 -105.21784 13816 ft 392 kts 247°
2026-04-24 21:36 39.67510 -105.25043 14343 ft 394 kts 247°
2026-04-24 21:36 39.66430 -105.28324 14872 ft 397 kts 247°
2026-04-24 21:37 39.65341 -105.31618 15445 ft 396 kts 247°
2026-04-24 21:37 39.64257 -105.34897 16009 ft 396 kts 247°
2026-04-24 21:37 39.63167 -105.38194 16503 ft 399 kts 247°
2026-04-24 21:37 39.62084 -105.41475 16960 ft 402 kts 247°
2026-04-24 21:38 39.60982 -105.44817 17436 ft 405 kts 247°
2026-04-24 21:38 39.59872 -105.48187 17870 ft 408 kts 247°
2026-04-24 21:38 39.58754 -105.51573 18302 ft 410 kts 246°
2026-04-24 21:38 39.57619 -105.54993 18675 ft 413 kts 246°
2026-04-24 21:39 39.56478 -105.58419 19067 ft 415 kts 246°
2026-04-24 21:39 39.55331 -105.61865 19445 ft 418 kts 247°
2026-04-24 21:39 39.54244 -105.65368 19869 ft 419 kts 249°
2026-04-24 21:39 39.53250 -105.68884 20490 ft 414 kts 251°
2026-04-24 21:40 39.52301 -105.72416 20809 ft 417 kts 251°
2026-04-24 21:40 39.51379 -105.75918 21182 ft 416 kts 252°
2026-04-24 21:40 39.50435 -105.79475 21459 ft 420 kts 251°
2026-04-24 21:40 39.49468 -105.83053 21736 ft 422 kts 251°
2026-04-24 21:41 39.48483 -105.86627 22069 ft 422 kts 251°
2026-04-24 21:41 39.47484 -105.90205 22310 ft 425 kts 250°
2026-04-24 21:41 39.46472 -105.93803 22652 ft 425 kts 250°
2026-04-24 21:41 39.45458 -105.97406 22864 ft 428 kts 251°
2026-04-24 21:42 39.44438 -106.01038 23145 ft 430 kts 251°
2026-04-24 21:42 39.43430 -106.04631 23398 ft 432 kts 251°
2026-04-24 21:42 39.42404 -106.08296 23583 ft 434 kts 251°
2026-04-24 21:42 39.41375 -106.11963 23834 ft 434 kts 251°
2026-04-24 21:43 39.40341 -106.15637 24051 ft 436 kts 251°
2026-04-24 21:43 39.39302 -106.19319 24286 ft 436 kts 251°
2026-04-24 21:43 39.38260 -106.23001 24502 ft 437 kts 251°
2026-04-24 21:43 39.37215 -106.26695 24880 ft 438 kts 251°
2026-04-24 21:44 39.36170 -106.30386 25104 ft 438 kts 251°
2026-04-24 21:44 39.35139 -106.34025 25307 ft 437 kts 251°
2026-04-24 21:44 39.34094 -106.37712 25483 ft 437 kts 251°
2026-04-24 21:44 39.33049 -106.41384 25703 ft 435 kts 251°
2026-04-24 21:45 39.32006 -106.45046 25966 ft 433 kts 252°
2026-04-24 21:45 39.30969 -106.48684 26185 ft 431 kts 252°
2026-04-24 21:45 39.29935 -106.52306 26411 ft 429 kts 252°
2026-04-24 21:45 39.28906 -106.55909 26709 ft 426 kts 252°
2026-04-24 21:46 39.27882 -106.59489 26968 ft 424 kts 252°
2026-04-24 21:46 39.26874 -106.63002 27223 ft 422 kts 252°
2026-04-24 21:46 39.25853 -106.66534 27568 ft 418 kts 252°
2026-04-24 21:46 39.24841 -106.70042 27904 ft 416 kts 252°
2026-04-24 21:47 39.23725 -106.73480 28264 ft 416 kts 247°
2026-04-24 21:47 39.22858 -106.75734 28491 ft 415 kts 247°
2026-04-24 21:47 39.21161 -106.80134 28925 ft 412 kts 247°
2026-04-24 21:47 39.19886 -106.83431 29252 ft 410 kts 247°
2026-04-24 21:48 39.18617 -106.86705 29597 ft 407 kts 247°
2026-04-24 21:48 39.17357 -106.89968 29704 ft 405 kts 247°
2026-04-24 21:48 39.16108 -106.93206 30014 ft 403 kts 247°
2026-04-24 21:48 39.14875 -106.96395 30251 ft 402 kts 247°
2026-04-24 21:49 39.13624 -106.99614 30517 ft 401 kts 247°
2026-04-24 21:49 39.12375 -107.02819 30819 ft 400 kts 247°
2026-04-24 21:49 39.11129 -107.06014 31063 ft 399 kts 246°
2026-04-24 21:49 39.09881 -107.09212 31293 ft 399 kts 246°
2026-04-24 21:50 39.08635 -107.12408 31532 ft 399 kts 246°
2026-04-24 21:50 39.07392 -107.15598 31744 ft 399 kts 246°
2026-04-24 21:50 39.06150 -107.18787 31794 ft 398 kts 247°
2026-04-24 21:51 39.03691 -107.25104 31809 ft 398 kts 246°
2026-04-24 21:51 39.01201 -107.31452 31809 ft 397 kts 246°
2026-04-24 21:52 38.98710 -107.37788 31812 ft 397 kts 246°
2026-04-24 21:52 38.96218 -107.44128 31820 ft 398 kts 246°
2026-04-24 21:53 38.93731 -107.50436 31803 ft 398 kts 246°
2026-04-24 21:53 38.91225 -107.56782 31804 ft 399 kts 246°
2026-04-24 21:54 38.88710 -107.63131 31762 ft 399 kts 246°
2026-04-24 21:54 38.86185 -107.69468 31774 ft 399 kts 246°
2026-04-24 21:55 38.83678 -107.75774 31748 ft 399 kts 245°
2026-04-24 21:55 38.81154 -107.82114 31808 ft 399 kts 245°
2026-04-24 21:56 38.78626 -107.88459 31822 ft 400 kts 245°
2026-04-24 21:56 38.76089 -107.94798 31842 ft 400 kts 245°
2026-04-24 21:57 38.73565 -108.01099 31853 ft 400 kts 245°
2026-04-24 21:57 38.71017 -108.07445 31855 ft 401 kts 245°
2026-04-24 21:58 38.68462 -108.13791 31849 ft 401 kts 245°
2026-04-24 21:58 38.65901 -108.20133 31803 ft 401 kts 245°
2026-04-24 21:59 38.63362 -108.26425 31786 ft 401 kts 245°
2026-04-24 21:59 38.60799 -108.32753 31765 ft 401 kts 245°
2026-04-24 22:00 38.58226 -108.39075 31763 ft 401 kts 245°
2026-04-24 22:00 38.55655 -108.45398 31758 ft 401 kts 245°
2026-04-24 22:01 38.52863 -108.51512 31740 ft 406 kts 232°
2026-04-24 22:01 38.50733 -108.53929 31735 ft 416 kts 218°
2026-04-24 22:01 38.48099 -108.55540 31733 ft 428 kts 203°
2026-04-24 22:01 38.45110 -108.56150 31749 ft 445 kts 187°
2026-04-24 22:02 38.41995 -108.55584 31749 ft 463 kts 170°
2026-04-24 22:02 38.39035 -108.53807 31750 ft 479 kts 155°
2026-04-24 22:02 38.36201 -108.51554 31744 ft 480 kts 155°
2026-04-24 22:03 38.30538 -108.46988 31761 ft 483 kts 154°
2026-04-24 22:03 38.24885 -108.42429 31790 ft 485 kts 155°
2026-04-24 22:04 38.19161 -108.37874 31808 ft 485 kts 155°
2026-04-24 22:04 38.13433 -108.33334 31810 ft 485 kts 155°
2026-04-24 22:05 38.07829 -108.28866 31830 ft 460 kts 155°
2026-04-24 22:05 38.03122 -108.23744 31848 ft 449 kts 129°
2026-04-24 22:06 38.00055 -108.17049 31845 ft 431 kts 116°
2026-04-24 22:06 37.99228 -108.13423 31865 ft 428 kts 105°
2026-04-24 22:06 37.98614 -108.09731 31862 ft 427 kts 105°
2026-04-24 22:07 37.97406 -108.02361 31877 ft 427 kts 105°
2026-04-24 22:07 37.96800 -107.98677 32032 ft 427 kts 105°
2026-04-24 22:07 37.96198 -107.95043 32036 ft 427 kts 105°
2026-04-24 22:07 37.95501 -107.91395 32013 ft 424 kts 116°
2026-04-24 22:08 37.94035 -107.88261 32038 ft 407 kts 142°
2026-04-24 22:08 37.91843 -107.86204 32036 ft 382 kts 168°
2026-04-24 22:08 37.89359 -107.85521 32036 ft 353 kts 194°
2026-04-24 22:08 37.87093 -107.86237 32041 ft 325 kts 220°
2026-04-24 22:09 37.85499 -107.88090 32029 ft 306 kts 245°
2026-04-24 22:09 37.84905 -107.90593 32026 ft 299 kts 271°
2026-04-24 22:09 37.85433 -107.93132 32028 ft 308 kts 297°
2026-04-24 22:09 37.86894 -107.95156 31963 ft 322 kts 311°
2026-04-24 22:10 37.88564 -107.97034 31534 ft 321 kts 310°
2026-04-24 22:10 37.90236 -107.98910 31140 ft 321 kts 311°
2026-04-24 22:10 37.91903 -108.00778 30747 ft 320 kts 311°
2026-04-24 22:10 37.93570 -108.02645 30358 ft 319 kts 311°
2026-04-24 22:11 37.95168 -108.04566 29595 ft 314 kts 298°
2026-04-24 22:11 37.96223 -108.06951 28533 ft 312 kts 291°
2026-04-24 22:11 37.97215 -108.09409 27607 ft 313 kts 292°
2026-04-24 22:11 37.98227 -108.11846 26904 ft 311 kts 293°
2026-04-24 22:12 37.99224 -108.14220 26276 ft 307 kts 293°
2026-04-24 22:12 38.00218 -108.16595 25662 ft 303 kts 293°
2026-04-24 22:12 38.01193 -108.18941 25086 ft 299 kts 293°
2026-04-24 22:12 38.02155 -108.21266 24532 ft 296 kts 294°
2026-04-24 22:13 38.03102 -108.23562 23970 ft 292 kts 294°
2026-04-24 22:13 38.04062 -108.25820 23442 ft 289 kts 296°
2026-04-24 22:13 38.04796 -108.28139 22814 ft 279 kts 275°
2026-04-24 22:13 38.04653 -108.30540 22208 ft 274 kts 250°
2026-04-24 22:14 38.03836 -108.32682 21582 ft 275 kts 237°
2026-04-24 22:14 38.02466 -108.34361 20976 ft 279 kts 212°
2026-04-24 22:14 38.00631 -108.35230 20389 ft 284 kts 200°
2026-04-24 22:14 37.98719 -108.35846 19834 ft 283 kts 199°
2026-04-24 22:15 37.96815 -108.36429 19320 ft 280 kts 199°
2026-04-24 22:15 37.94931 -108.37003 18829 ft 277 kts 199°
2026-04-24 22:15 37.93066 -108.37575 18367 ft 274 kts 199°
2026-04-24 22:15 37.91222 -108.38137 17845 ft 271 kts 198°
2026-04-24 22:16 37.89426 -108.38696 17342 ft 268 kts 198°
2026-04-24 22:16 37.87599 -108.39119 16837 ft 269 kts 186°
2026-04-24 22:16 37.85748 -108.38711 16358 ft 275 kts 161°
2026-04-24 22:16 37.84175 -108.37302 15871 ft 283 kts 133°
2026-04-24 22:17 37.83255 -108.35108 15378 ft 287 kts 107°
2026-04-24 22:17 37.83238 -108.32580 14909 ft 291 kts 73°
2026-04-24 22:17 37.84169 -108.30397 14784 ft 281 kts 52°
2026-04-24 22:17 37.85426 -108.28492 14568 ft 278 kts 47°
2026-04-24 22:18 37.86702 -108.26740 14597 ft 267 kts 45°
2026-04-24 22:18 37.88051 -108.25103 14633 ft 278 kts 39°
2026-04-24 22:18 37.89591 -108.23448 14279 ft 302 kts 38°
2026-04-24 22:18 37.91264 -108.21803 14015 ft 310 kts 35°
2026-04-24 22:19 37.93040 -108.20178 13733 ft 321 kts 34°
2026-04-24 22:19 37.94931 -108.18552 13253 ft 336 kts 32°
2026-04-24 22:19 37.96926 -108.16918 12741 ft 346 kts 31°
2026-04-24 22:19 37.98955 -108.15198 12061 ft 354 kts 38°
2026-04-24 22:20 38.00648 -108.12964 11894 ft 348 kts 56°
2026-04-24 22:20 38.01733 -108.10307 11439 ft 347 kts 79°
2026-04-24 22:20 38.01650 -108.07367 11265 ft 324 kts 114°
2026-04-24 22:20 38.00730 -108.04856 10933 ft 309 kts 123°
2026-04-24 22:21 37.99662 -108.02574 10825 ft 297 kts 126°
2026-04-24 22:21 37.98646 -108.00299 10414 ft 291 kts 124°
2026-04-24 22:21 37.97709 -107.98173 10268 ft 264 kts 123°
2026-04-24 22:21 37.96917 -107.96196 10043 ft 244 kts 121°
2026-04-24 22:22 37.96212 -107.94322 9853 ft 224 kts 118°
2026-04-24 22:22 37.95740 -107.92554 9321 ft 212 kts 107°
2026-04-24 22:22 37.95388 -107.90790 9241 ft 211 kts 111°
2026-04-24 22:22 37.94778 -107.89047 9862 ft 226 kts 128°
2026-04-24 22:23 37.93849 -107.87402 10347 ft 228 kts 123°
2026-04-24 22:23 37.93369 -107.85563 11077 ft 223 kts 89°
2026-04-24 22:23 37.93974 -107.83767 11395 ft 223 kts 26°
2026-04-24 22:23 37.95249 -107.83291 12038 ft 178 kts 330°
2026-04-24 22:24 37.96015 -107.84307 12303 ft 173 kts 283°
2026-04-24 22:24 37.96142 -107.85879 12162 ft 191 kts 265°
2026-04-24 22:24 37.96110 -107.87652 12076 ft 210 kts 265°
2026-04-24 22:24 37.96068 -107.89509 11901 ft 208 kts 260°
2026-04-24 22:25 37.95707 -107.91271 11441 ft 203 kts 251°
2026-04-24 22:25 37.95238 -107.92916 11140 ft 193 kts 251°
2026-04-24 22:25 37.95039 -107.94433 11132 ft 162 kts 278°
2026-04-24 22:25 37.95582 -107.95771 10739 ft 186 kts 302°
2026-04-24 22:26 37.96475 -107.97004 10425 ft 184 kts 309°
2026-04-24 22:26 37.97348 -107.98255 10079 ft 199 kts 297°
2026-04-24 22:26 37.97973 -107.99839 10006 ft 210 kts 286°
2026-04-24 22:26 37.98348 -108.01621 10072 ft 202 kts 275°
2026-04-24 22:27 37.98328 -108.03324 10281 ft 188 kts 261°
2026-04-24 22:27 37.98209 -108.04924 10481 ft 178 kts 276°
2026-04-24 22:27 37.98832 -108.06205 10638 ft 181 kts 329°
2026-04-24 22:27 38.00178 -108.06303 10516 ft 216 kts 22°
2026-04-24 22:28 38.01182 -108.04907 10331 ft 222 kts 81°
2026-04-24 22:28 38.00929 -108.03099 10257 ft 208 kts 131°
2026-04-24 22:28 37.99945 -108.01789 10168 ft 204 kts 143°
2026-04-24 22:28 37.99003 -108.00615 10230 ft 178 kts 138°
2026-04-24 22:29 37.97547 -107.98087 10037 ft 191 kts 128°
2026-04-24 22:29 37.96850 -107.96685 10233 ft 188 kts 127°
2026-04-24 22:29 37.96319 -107.95144 9818 ft 196 kts 114°
2026-04-24 22:30 37.95932 -107.93465 9492 ft 200 kts 106°
2026-04-24 22:30 37.95577 -107.91796 9079 ft 189 kts 107°
2026-04-24 22:30 37.95271 -107.90397 9047 ft 123 kts 107°
2026-04-24 22:30 37.95179 -107.89947 9062 ft 9 kts 99°
2026-04-24 22:31 37.95166 -107.89867 9064 ft 7 kts 103°
2026-04-24 22:31 37.95161 -107.89841 9068 ft 0 kts 103°
2026-04-24 22:31 37.95159 -107.89831 9069 ft 3 kts 103°
2026-04-24 22:32 37.95155 -107.89806 9070 ft 4 kts 103°
2026-04-24 22:32 37.95148 -107.89770 9071 ft 5 kts 104°
2026-04-24 22:32 37.95144 -107.89709 9074 ft 9 kts 78°
2026-04-24 22:32 37.95199 -107.89667 9076 ft 11 kts
2026-04-24 22:33 37.95256 -107.89727 9073 ft 14 kts 283°
2026-04-24 22:33 37.95282 -107.89863 9067 ft 18 kts 284°
2026-04-24 22:33 37.95313 -107.90020 9060 ft 16 kts 282°
2026-04-24 22:33 37.95369 -107.90104 9058 ft 11 kts
2026-04-24 22:34 37.95378 -107.90101 9058 ft 0 kts 14°